This is the latest recevied weather packets stored in our database for station/object KA8DUX-2. If no packets are shown the sender has not sent any weather packets the latest 10 day(s).
| Time | Temp. | Humidity | Pressure | Rain* | Wind** | Luminosity | Snow |
|---|---|---|---|---|---|---|---|
| 1778245092 | 9.44° C | 73% | 1010.4 hPa | 0 mm | - | 166 W/m² | - |
| 1778244788 | 8.89° C | 74% | 1010.4 hPa | 0 mm | - | 148 W/m² | - |
| 1778244487 | 8.33° C | 76% | 1010.6 hPa | 0 mm | - | 85 W/m² | - |
| 1778244183 | 7.78° C | 78% | 1010.6 hPa | 0 mm | - | 66 W/m² | - |
| 1778243881 | 7.22° C | 80% | 1010.4 hPa | 0 mm | - | 66 W/m² | - |
| 1778243579 | 6.67° C | 81% | 1010.6 hPa | 0 mm | - | 51 W/m² | - |
| 1778243275 | 6.11° C | 84% | 1010.3 hPa | 0 mm | - | 43 W/m² | - |
| 1778242972 | 5.56° C | 87% | 1010.3 hPa | 0 mm | - | 49 W/m² | - |
| 1778242669 | 5° C | 89% | 1010.3 hPa | 0 mm | - | 42 W/m² | - |
| 1778242368 | 4.44° C | 90% | 1010.1 hPa | 0 mm | - | 37 W/m² | - |
| 1778242064 | 3.89° C | 91% | 1010.2 hPa | 0 mm | - | 37 W/m² | - |
| 1778241763 | 3.33° C | 94% | 1010.1 hPa | 0 mm | - | 38 W/m² | - |
| 1778241460 | 2.78° C | 95% | 1010.2 hPa | 0 mm | - | 34 W/m² | - |
| 1778241158 | 2.78° C | 95% | 1010.2 hPa | 0 mm | - | 32 W/m² | - |
| 1778240853 | 2.22° C | 96% | 1009.9 hPa | 0 mm | - | 31 W/m² | - |
| 1778240551 | 1.67° C | 95% | 1010 hPa | 0 mm | - | 29 W/m² | - |
| 1778240247 | 1.67° C | 95% | 1009.9 hPa | 0 mm | - | 27 W/m² | - |
| 1778239946 | 1.67° C | 96% | 1009.9 hPa | 0 mm | - | 26 W/m² | - |
| 1778239641 | 1.11° C | 96% | 1010 hPa | 0 mm | - | 25 W/m² | - |
| 1778239339 | 1.11° C | 96% | 1010 hPa | 0 mm | - | 23 W/m² | - |
| 1778239035 | 0.56° C | 95% | 1009.9 hPa | 0 mm | - | 21 W/m² | - |
| 1778238733 | 0.56° C | 95% | 1009.9 hPa | 0 mm | - | 19 W/m² | - |
| 1778238430 | 0.56° C | 95% | 1009.9 hPa | 0 mm | - | 17 W/m² | - |
| 1778238127 | 0.56° C | 95% | 1010 hPa | 0 mm | - | 15 W/m² | - |
| 1778237826 | 0.56° C | 95% | 1010 hPa | 0 mm | - | 13 W/m² | - |
* Rain latest hour (hover to see other rain measurements)
** Current wind speed in m/s (hover to see current wind gust speed)